Location: Härggis
(46.9540°N, 8.4897°E)
Time: 19:33:15
(UTC+00:00)

Cosmos 1825 - Pass Details

Date: 27 May 2022
Orbit: 496 x 498 km, 82.5° (Epoch: 02 July)

Event Time Altitude Azimuth Distance (km) Brightness Sun altitude
Rises 03:01:09 0° 175° (S) 2,569 5.4 -6.0°
Reaches altitude 10° 03:03:18 10° 169° (S) 1,692 4.5 -5.7°
Maximum altitude 03:06:52 48° 94° (E) 656 3.1 -5.2°
Drops below altitude 10° 03:10:29 10° 20° (NNE) 1,708 5.9 -4.8°
Sets 03:12:39 0° 15° (NNE) 2,597 6.7 -4.5°
